BCS3004 LBSF-EKCH

Flight info

Callsign BCS3004
Flight time 2h 21m
Altitude 40000
Route OGOTA N133 ERDOM DCT OVDOT DCT PITOK DCT REDSI DCT BABKO DCT BABEN DCT KOLOB DCT ROE M743 TIDVU
Aircraft A333/H-SDE3GHIJ2J3J5M1RVWXY/LB2D1

Departure

Time 2026-04-30 09:31
Airport Sofia Airport (LBSF)

Arrival

Time 2026-04-30 11:52
Airport Copenhagen Kastrup Airport (EKCH)
Time Latitude Longitude Altitude Speed Heading
2026-04-30 08:39 42.69018 23.41001 1751 ft 0 kts 342°
2026-04-30 09:21 42.69019 23.41001 1742 ft 0 kts 342°
2026-04-30 09:21 42.69031 23.40995 1744 ft 4 kts 342°
2026-04-30 09:21 42.69055 23.40987 1743 ft 3 kts 350°
2026-04-30 09:22 42.69070 23.40987 1749 ft 2 kts
2026-04-30 09:22 42.69087 23.40996 1746 ft 4 kts 26°
2026-04-30 09:22 42.69107 23.41031 1741 ft 6 kts 62°
2026-04-30 09:22 42.69126 23.41088 1744 ft 7 kts 62°
2026-04-30 09:23 42.69166 23.41133 1742 ft 8 kts 21°
2026-04-30 09:23 42.69222 23.41151 1744 ft 8 kts 13°
2026-04-30 09:23 42.69270 23.41166 1745 ft 8 kts 13°
2026-04-30 09:23 42.69326 23.41181 1744 ft 9 kts 11°
2026-04-30 09:24 42.69389 23.41197 1751 ft 10 kts 11°
2026-04-30 09:24 42.69457 23.41220 1744 ft 10 kts 22°
2026-04-30 09:24 42.69488 23.41297 1744 ft 10 kts 94°
2026-04-30 09:24 42.69480 23.41404 1744 ft 12 kts 95°
2026-04-30 09:25 42.69472 23.41525 1752 ft 14 kts 95°
2026-04-30 09:25 42.69464 23.41664 1743 ft 15 kts 95°
2026-04-30 09:25 42.69454 23.41815 1750 ft 17 kts 95°
2026-04-30 09:25 42.69445 23.41977 1747 ft 18 kts 95°
2026-04-30 09:26 42.69435 23.42147 1745 ft 19 kts 94°
2026-04-30 09:26 42.69423 23.42326 1751 ft 19 kts 95°
2026-04-30 09:26 42.69413 23.42512 1750 ft 20 kts 94°
2026-04-30 09:26 42.69402 23.42704 1748 ft 21 kts 95°
2026-04-30 09:27 42.69390 23.42904 1750 ft 21 kts 94°
2026-04-30 09:27 42.69378 23.43106 1746 ft 21 kts 95°
2026-04-30 09:27 42.69366 23.43305 1755 ft 21 kts 94°
2026-04-30 09:27 42.69355 23.43498 1755 ft 20 kts 94°
2026-04-30 09:28 42.69344 23.43690 1750 ft 20 kts 94°
2026-04-30 09:28 42.69336 23.43839 1787 ft 11 kts 93°
2026-04-30 09:28 42.69352 23.43932 1788 ft 9 kts 53°
2026-04-30 09:28 42.69404 23.43958 1786 ft 7 kts 360°
2026-04-30 09:29 42.69452 23.43957 1785 ft 7 kts 359°
2026-04-30 09:29 42.69501 23.43953 1785 ft 7 kts 346°
2026-04-30 09:29 42.69513 23.43928 1785 ft 2 kts 286°
2026-04-30 09:29 42.69515 23.43902 1784 ft 3 kts 274°
2026-04-30 09:30 42.69517 23.43887 1786 ft 0 kts 277°
2026-04-30 09:30 42.69517 23.43886 1786 ft 0 kts 277°
2026-04-30 09:30 42.69524 23.43802 1784 ft 32 kts 276°
2026-04-30 09:30 42.69560 23.43218 1756 ft 90 kts 274°
2026-04-30 09:31 42.69622 23.42138 1746 ft 141 kts 275°
2026-04-30 09:31 42.69702 23.40589 1881 ft 181 kts 272°
2026-04-30 09:31 42.69779 23.38784 2503 ft 196 kts 277°
2026-04-30 09:31 42.70192 23.37080 3510 ft 187 kts 307°
2026-04-30 09:32 42.71265 23.36260 4549 ft 181 kts 355°
2026-04-30 09:32 42.72522 23.36363 5253 ft 188 kts
2026-04-30 09:32 42.73867 23.36034 5701 ft 208 kts 341°
2026-04-30 09:32 42.75283 23.35251 6054 ft 230 kts 341°
2026-04-30 09:33 42.76898 23.34787 6506 ft 241 kts 353°
2026-04-30 09:33 42.78634 23.34528 6856 ft 262 kts 353°
2026-04-30 09:33 42.80482 23.34136 7471 ft 271 kts 349°
2026-04-30 09:33 42.82333 23.33667 8234 ft 277 kts 347°
2026-04-30 09:34 42.84248 23.33176 8989 ft 283 kts 348°
2026-04-30 09:34 42.86233 23.32925 9755 ft 291 kts 355°
2026-04-30 09:34 42.88300 23.32874 10330 ft 304 kts 356°
2026-04-30 09:34 42.90465 23.32857 10662 ft 324 kts 356°
2026-04-30 09:35 42.92785 23.32848 11057 ft 341 kts 356°
2026-04-30 09:35 42.95202 23.32840 11641 ft 350 kts 356°
2026-04-30 09:35 42.97653 23.32831 12379 ft 353 kts 355°
2026-04-30 09:35 43.00095 23.32818 13072 ft 357 kts 355°
2026-04-30 09:36 43.02596 23.32799 13817 ft 361 kts 354°
2026-04-30 09:36 43.05130 23.32780 14435 ft 365 kts 354°
2026-04-30 09:36 43.07684 23.32760 15042 ft 369 kts 354°
2026-04-30 09:36 43.10288 23.32741 15554 ft 375 kts 354°
2026-04-30 09:37 43.12895 23.32725 16308 ft 373 kts 353°
2026-04-30 09:37 43.15468 23.32707 16994 ft 376 kts 354°
2026-04-30 09:37 43.18107 23.32685 17543 ft 382 kts 354°
2026-04-30 09:37 43.20783 23.32661 18151 ft 385 kts 353°
2026-04-30 09:38 43.23467 23.32509 18780 ft 386 kts 350°
2026-04-30 09:38 43.26150 23.32227 19354 ft 387 kts 348°
2026-04-30 09:38 43.28840 23.31879 19916 ft 389 kts 348°
2026-04-30 09:38 43.31544 23.31510 20490 ft 391 kts 347°
2026-04-30 09:39 43.34263 23.31139 21063 ft 393 kts 347°
2026-04-30 09:39 43.37001 23.30772 21563 ft 397 kts 347°
2026-04-30 09:39 43.39761 23.30410 22084 ft 400 kts 347°
2026-04-30 09:39 43.42508 23.30060 22623 ft 402 kts 347°
2026-04-30 09:40 43.45300 23.29709 23166 ft 405 kts 347°
2026-04-30 09:40 43.48114 23.29358 23691 ft 407 kts 347°
2026-04-30 09:40 43.50938 23.28949 24127 ft 406 kts 343°
2026-04-30 09:40 43.53717 23.28268 24557 ft 406 kts 341°
2026-04-30 09:41 43.56504 23.27504 24986 ft 407 kts 340°
2026-04-30 09:41 43.59280 23.26692 25407 ft 409 kts 339°
2026-04-30 09:41 43.62067 23.25851 25835 ft 410 kts 338°
2026-04-30 09:41 43.64824 23.25009 26252 ft 411 kts 338°
2026-04-30 09:42 43.67631 23.24149 26674 ft 412 kts 338°
2026-04-30 09:42 43.70445 23.23289 27070 ft 414 kts 338°
2026-04-30 09:42 43.73267 23.22428 27473 ft 416 kts 338°
2026-04-30 09:42 43.76106 23.21565 27915 ft 418 kts 337°
2026-04-30 09:43 43.78922 23.20710 28294 ft 420 kts 337°
2026-04-30 09:43 43.81788 23.19841 28697 ft 422 kts 337°
2026-04-30 09:43 43.84659 23.18970 29108 ft 423 kts 337°
2026-04-30 09:43 43.87544 23.18094 29512 ft 424 kts 336°
2026-04-30 09:44 43.90414 23.17222 29902 ft 426 kts 336°
2026-04-30 09:44 43.93314 23.16339 30281 ft 428 kts 336°
2026-04-30 09:44 43.96230 23.15450 30605 ft 430 kts 336°
2026-04-30 09:44 43.99170 23.14553 30870 ft 431 kts 337°
2026-04-30 09:45 44.02108 23.13657 31133 ft 432 kts 337°
2026-04-30 09:45 44.05061 23.12755 31383 ft 434 kts 338°
2026-04-30 09:45 44.07987 23.11860 31632 ft 437 kts 338°
2026-04-30 09:45 44.10969 23.10946 31843 ft 440 kts 338°
2026-04-30 09:46 44.13963 23.10027 31974 ft 441 kts 338°
2026-04-30 09:46 44.16967 23.09106 32105 ft 442 kts 338°
2026-04-30 09:46 44.19922 23.08010 32277 ft 437 kts 333°
2026-04-30 09:46 44.22775 23.06505 32581 ft 435 kts 330°
2026-04-30 09:47 44.25552 23.04925 33005 ft 433 kts 329°
2026-04-30 09:47 44.28321 23.03287 33421 ft 431 kts 329°
2026-04-30 09:47 44.31077 23.01618 33813 ft 431 kts 329°
2026-04-30 09:47 44.33824 22.99937 34190 ft 431 kts 330°
2026-04-30 09:48 44.36567 22.98252 34524 ft 430 kts 330°
2026-04-30 09:48 44.39272 22.96591 34792 ft 430 kts 330°
2026-04-30 09:48 44.42025 22.94902 35020 ft 432 kts 330°
2026-04-30 09:48 44.44782 22.93211 35238 ft 433 kts 330°
2026-04-30 09:49 44.47545 22.91519 35486 ft 433 kts 330°
2026-04-30 09:49 44.50316 22.89822 35731 ft 434 kts 330°
2026-04-30 09:49 44.52154 22.88696 35874 ft 435 kts 330°
2026-04-30 09:49 44.55834 22.86441 36179 ft 436 kts 331°
2026-04-30 09:50 44.58622 22.84730 36433 ft 436 kts 331°
2026-04-30 09:50 44.60501 22.83575 36586 ft 437 kts 331°
2026-04-30 09:50 44.63266 22.81874 36795 ft 438 kts 331°
2026-04-30 09:50 44.66074 22.80145 36998 ft 439 kts 331°
2026-04-30 09:51 44.68849 22.78434 37187 ft 440 kts 332°
2026-04-30 09:51 44.71660 22.76700 37403 ft 441 kts 332°
2026-04-30 09:51 44.74478 22.74959 37636 ft 441 kts 332°
2026-04-30 09:51 44.77295 22.73219 37869 ft 442 kts 332°
2026-04-30 09:52 44.80113 22.71475 38042 ft 442 kts 332°
2026-04-30 09:52 44.82900 22.69748 38244 ft 443 kts 332°
2026-04-30 09:52 44.85727 22.67994 38432 ft 443 kts 332°
2026-04-30 09:52 44.88554 22.66238 38670 ft 443 kts 332°
2026-04-30 09:53 44.91375 22.64484 38930 ft 442 kts 333°
2026-04-30 09:53 44.94189 22.62734 39158 ft 440 kts 333°
2026-04-30 09:53 44.96953 22.61013 39322 ft 440 kts 333°
2026-04-30 09:53 44.99758 22.59263 39431 ft 441 kts 333°
2026-04-30 09:54 45.02570 22.57506 39599 ft 441 kts 333°
2026-04-30 09:54 45.05374 22.55753 39744 ft 441 kts 333°
2026-04-30 09:54 45.08185 22.53994 39893 ft 441 kts 333°
2026-04-30 09:54 45.10992 22.52236 40028 ft 441 kts 333°
2026-04-30 09:55 45.13800 22.50476 40180 ft 441 kts 333°
2026-04-30 09:55 45.16612 22.48710 40250 ft 443 kts 333°
2026-04-30 09:55 45.22253 22.45160 40258 ft 448 kts 333°
2026-04-30 09:56 45.27969 22.41559 40249 ft 448 kts 333°
2026-04-30 09:56 45.33678 22.37956 40249 ft 447 kts 333°
2026-04-30 09:57 45.39341 22.34372 40248 ft 448 kts 333°
2026-04-30 09:57 45.45060 22.30744 40249 ft 449 kts 333°
2026-04-30 09:58 45.50751 22.27126 40251 ft 449 kts 333°
2026-04-30 09:58 45.56457 22.23491 40252 ft 448 kts 333°
2026-04-30 09:59 45.67843 22.16211 40254 ft 449 kts 333°
2026-04-30 10:00 45.76373 22.10736 40256 ft 449 kts 333°
2026-04-30 10:01 45.84902 22.05244 40270 ft 449 kts 334°
2026-04-30 10:02 45.93474 21.99705 40266 ft 450 kts 334°
2026-04-30 10:02 45.99181 21.96007 40265 ft 450 kts 334°
2026-04-30 10:03 46.04859 21.92320 40261 ft 450 kts 334°
2026-04-30 10:03 46.10577 21.88597 40273 ft 450 kts 334°
2026-04-30 10:04 46.16294 21.84867 40267 ft 451 kts 334°
2026-04-30 10:04 46.22017 21.81125 40271 ft 451 kts 334°
2026-04-30 10:05 46.27708 21.77395 40271 ft 451 kts 334°
2026-04-30 10:05 46.33430 21.73636 40292 ft 451 kts 334°
2026-04-30 10:06 46.39111 21.69895 40275 ft 449 kts 334°
2026-04-30 10:06 46.44801 21.66140 40281 ft 448 kts 334°
2026-04-30 10:07 46.50485 21.62381 40282 ft 448 kts 334°
2026-04-30 10:07 46.56142 21.58630 40289 ft 448 kts 334°
2026-04-30 10:08 46.61792 21.54875 40293 ft 448 kts 334°
2026-04-30 10:08 46.67466 21.51095 40300 ft 448 kts 334°
2026-04-30 10:09 46.73151 21.47300 40304 ft 448 kts 334°
2026-04-30 10:09 46.78832 21.43498 40312 ft 449 kts 334°
2026-04-30 10:10 46.84476 21.39713 40311 ft 449 kts 334°
2026-04-30 10:10 46.90145 21.35902 40322 ft 448 kts 334°
2026-04-30 10:11 46.95825 21.32075 40321 ft 448 kts 334°
2026-04-30 10:11 47.01492 21.28246 40327 ft 448 kts 334°
2026-04-30 10:12 47.07126 21.24432 40327 ft 448 kts 334°
2026-04-30 10:12 47.12795 21.20585 40336 ft 447 kts 334°
2026-04-30 10:13 47.18418 21.16759 40336 ft 447 kts 334°
2026-04-30 10:13 47.24074 21.12903 40341 ft 447 kts 334°
2026-04-30 10:14 47.29728 21.09039 40343 ft 446 kts 334°
2026-04-30 10:14 47.38151 21.03265 40344 ft 446 kts 334°
2026-04-30 10:15 47.43785 20.99392 40347 ft 446 kts 334°
2026-04-30 10:15 47.49396 20.95525 40352 ft 447 kts 334°
2026-04-30 10:16 47.55034 20.91631 40352 ft 447 kts 334°
2026-04-30 10:17 47.63487 20.85774 40360 ft 447 kts 334°
2026-04-30 10:17 47.71932 20.79902 40363 ft 448 kts 334°
2026-04-30 10:18 47.77589 20.75957 40364 ft 447 kts 334°
2026-04-30 10:19 47.86026 20.70055 40363 ft 449 kts 335°
2026-04-30 10:19 47.91713 20.66065 40367 ft 450 kts 335°
2026-04-30 10:20 47.97354 20.62098 40373 ft 450 kts 335°
2026-04-30 10:20 48.05885 20.56079 40364 ft 452 kts 335°
2026-04-30 10:21 48.11537 20.52079 40373 ft 450 kts 335°
2026-04-30 10:21 48.17202 20.48061 40355 ft 450 kts 335°
2026-04-30 10:22 48.22864 20.44035 40358 ft 453 kts 335°
2026-04-30 10:22 48.28559 20.39975 40358 ft 453 kts 335°
2026-04-30 10:23 48.34244 20.35841 40358 ft 453 kts 334°
2026-04-30 10:23 48.39808 20.31470 40354 ft 453 kts 333°
2026-04-30 10:24 48.45375 20.27001 40354 ft 452 kts 333°
2026-04-30 10:24 48.50929 20.22552 40349 ft 451 kts 333°
2026-04-30 10:25 48.56477 20.18124 40349 ft 450 kts 333°
2026-04-30 10:25 48.61989 20.13721 40343 ft 450 kts 333°
2026-04-30 10:26 48.67532 20.09283 40345 ft 449 kts 334°
2026-04-30 10:26 48.73045 20.04856 40341 ft 447 kts 334°
2026-04-30 10:27 48.78514 20.00454 40339 ft 447 kts 334°
2026-04-30 10:27 48.84016 19.96015 40350 ft 446 kts 334°
2026-04-30 10:28 48.89470 19.91603 40351 ft 446 kts 334°
2026-04-30 10:28 48.94953 19.87155 40353 ft 446 kts 333°
2026-04-30 10:29 49.00405 19.82722 40359 ft 446 kts 333°
2026-04-30 10:29 49.05885 19.78255 40358 ft 446 kts 333°
2026-04-30 10:30 49.11359 19.73783 40370 ft 445 kts 333°
2026-04-30 10:30 49.16793 19.69331 40371 ft 445 kts 333°
2026-04-30 10:31 49.22280 19.64935 40387 ft 444 kts 338°
2026-04-30 10:31 49.28073 19.61833 40385 ft 442 kts 344°
2026-04-30 10:32 49.33983 19.59128 40390 ft 443 kts 345°
2026-04-30 10:32 49.39882 19.56517 40404 ft 443 kts 345°
2026-04-30 10:33 49.45806 19.53881 40400 ft 442 kts 345°
2026-04-30 10:33 49.51722 19.51224 40411 ft 442 kts 345°
2026-04-30 10:34 49.57645 19.48549 40413 ft 442 kts 345°
2026-04-30 10:34 49.63363 19.45145 40416 ft 444 kts 336°
2026-04-30 10:35 49.68933 19.40922 40422 ft 445 kts 335°
2026-04-30 10:35 49.74420 19.36579 40421 ft 445 kts 335°
2026-04-30 10:36 49.79950 19.32176 40419 ft 445 kts 335°
2026-04-30 10:36 49.85468 19.27792 40432 ft 445 kts 335°
2026-04-30 10:37 49.90961 19.23427 40438 ft 445 kts 335°
2026-04-30 10:37 49.96480 19.19033 40438 ft 445 kts 335°
2026-04-30 10:38 50.01955 19.14664 40438 ft 445 kts 335°
2026-04-30 10:38 50.07467 19.10254 40444 ft 445 kts 335°
2026-04-30 10:39 50.12082 19.06552 40437 ft 445 kts 335°
2026-04-30 10:39 50.17555 19.02150 40446 ft 444 kts 335°
2026-04-30 10:40 50.23060 18.97711 40442 ft 444 kts 335°
2026-04-30 10:40 50.28537 18.93284 40439 ft 444 kts 335°
2026-04-30 10:41 50.34035 18.88828 40437 ft 444 kts 335°
2026-04-30 10:41 50.39490 18.84395 40436 ft 443 kts 335°
2026-04-30 10:42 50.44982 18.79921 40436 ft 443 kts 335°
2026-04-30 10:42 50.50455 18.75449 40439 ft 442 kts 335°
2026-04-30 10:43 50.55872 18.71013 40460 ft 441 kts 335°
2026-04-30 10:43 50.61323 18.66537 40457 ft 441 kts 335°
2026-04-30 10:44 50.66736 18.62081 40459 ft 441 kts 335°
2026-04-30 10:44 50.72186 18.57582 40458 ft 441 kts 335°
2026-04-30 10:45 50.77633 18.53073 40462 ft 441 kts 335°
2026-04-30 10:45 50.83032 18.48593 40465 ft 441 kts 335°
2026-04-30 10:46 50.88478 18.44061 40464 ft 441 kts 335°
2026-04-30 10:46 50.93918 18.39523 40463 ft 441 kts 335°
2026-04-30 10:47 50.99325 18.35000 40466 ft 441 kts 335°
2026-04-30 10:47 51.04765 18.30437 40465 ft 441 kts 335°
2026-04-30 10:48 51.10195 18.25870 40458 ft 441 kts 335°
2026-04-30 10:48 51.15609 18.21304 40464 ft 439 kts 335°
2026-04-30 10:49 51.20980 18.16764 40465 ft 439 kts 335°
2026-04-30 10:49 51.26389 18.12178 40465 ft 439 kts 335°
2026-04-30 10:50 51.31792 18.07586 40465 ft 439 kts 335°
2026-04-30 10:50 51.37156 18.03014 40470 ft 439 kts 335°
2026-04-30 10:51 51.42563 17.98393 40474 ft 438 kts 335°
2026-04-30 10:51 51.47942 17.93783 40469 ft 437 kts 335°
2026-04-30 10:52 51.53278 17.89199 40473 ft 437 kts 335°
2026-04-30 10:52 51.58644 17.84576 40472 ft 437 kts 335°
2026-04-30 10:53 51.64006 17.79944 40479 ft 437 kts 335°
2026-04-30 10:53 51.69333 17.75330 40478 ft 437 kts 335°
2026-04-30 10:54 51.74684 17.70682 40457 ft 436 kts 336°
2026-04-30 10:54 51.80032 17.66024 40476 ft 435 kts 336°
2026-04-30 10:55 51.85323 17.61404 40476 ft 434 kts 336°
2026-04-30 10:55 51.90665 17.56727 40475 ft 435 kts 336°
2026-04-30 10:56 51.95963 17.52076 40476 ft 434 kts 336°
2026-04-30 10:56 52.01256 17.47416 40477 ft 434 kts 336°
2026-04-30 10:57 52.06574 17.42722 40473 ft 434 kts 336°
2026-04-30 10:57 52.11852 17.38050 40471 ft 432 kts 336°
2026-04-30 10:58 52.17143 17.33353 40471 ft 432 kts 336°
2026-04-30 10:58 52.22420 17.28657 40474 ft 432 kts 336°
2026-04-30 10:59 52.27699 17.23946 40474 ft 432 kts 336°
2026-04-30 10:59 52.32941 17.19256 40471 ft 432 kts 336°
2026-04-30 11:00 52.38225 17.14514 40469 ft 432 kts 336°
2026-04-30 11:00 52.43503 17.09764 40471 ft 432 kts 336°
2026-04-30 11:01 52.48762 17.05018 40468 ft 431 kts 336°
2026-04-30 11:01 52.53989 17.00290 40456 ft 431 kts 335°
2026-04-30 11:02 52.59259 16.95510 40471 ft 432 kts 335°
2026-04-30 11:02 52.64527 16.90717 40464 ft 432 kts 335°
2026-04-30 11:03 52.69770 16.85933 40460 ft 432 kts 335°
2026-04-30 11:04 52.77664 16.78705 40460 ft 432 kts 335°
2026-04-30 11:04 52.82882 16.73910 40465 ft 431 kts 335°
2026-04-30 11:05 52.88130 16.69076 40459 ft 431 kts 335°
2026-04-30 11:05 52.93377 16.64229 40460 ft 431 kts 335°
2026-04-30 11:06 52.98583 16.59406 40459 ft 431 kts 335°
2026-04-30 11:06 53.03834 16.54529 40460 ft 431 kts 335°
2026-04-30 11:07 53.09049 16.49671 40431 ft 431 kts 335°
2026-04-30 11:07 53.14285 16.44778 40457 ft 430 kts 335°
2026-04-30 11:08 53.19512 16.39881 40458 ft 430 kts 335°
2026-04-30 11:08 53.24689 16.35018 40460 ft 430 kts 335°
2026-04-30 11:09 53.29911 16.30099 40461 ft 430 kts 335°
2026-04-30 11:09 53.35098 16.25198 40454 ft 429 kts 335°
2026-04-30 11:10 53.40274 16.20291 40458 ft 425 kts 335°
2026-04-30 11:10 53.45418 16.15402 40450 ft 423 kts 335°
2026-04-30 11:11 53.50514 16.10548 40461 ft 422 kts 335°
2026-04-30 11:11 53.55635 16.05657 40461 ft 422 kts 335°
2026-04-30 11:12 53.60742 16.00764 40459 ft 422 kts 335°
2026-04-30 11:12 53.65817 15.95888 40463 ft 422 kts 335°
2026-04-30 11:13 53.70925 15.90967 40461 ft 422 kts 335°
2026-04-30 11:13 53.76034 15.86029 40462 ft 422 kts 335°
2026-04-30 11:14 53.81103 15.81117 40467 ft 421 kts 335°
2026-04-30 11:14 53.86198 15.76166 40473 ft 421 kts 335°
2026-04-30 11:15 53.91246 15.71247 40472 ft 421 kts 335°
2026-04-30 11:15 53.96334 15.66276 40474 ft 421 kts 335°
2026-04-30 11:15 53.98885 15.63778 40312 ft 421 kts 335°
2026-04-30 11:16 54.01390 15.61320 40085 ft 419 kts 335°
2026-04-30 11:16 54.03914 15.58840 39850 ft 418 kts 335°
2026-04-30 11:16 54.06425 15.56370 39621 ft 417 kts 335°
2026-04-30 11:16 54.08937 15.53895 39390 ft 416 kts 335°
2026-04-30 11:17 54.11446 15.51420 39170 ft 415 kts 336°
2026-04-30 11:17 54.13942 15.48955 38886 ft 414 kts 336°
2026-04-30 11:17 54.16409 15.46515 38596 ft 414 kts 336°
2026-04-30 11:17 54.18905 15.44044 38321 ft 414 kts 336°
2026-04-30 11:18 54.21404 15.41567 38043 ft 415 kts 336°
2026-04-30 11:18 54.26346 15.36649 37327 ft 407 kts 336°
2026-04-30 11:18 54.28796 15.34206 36867 ft 406 kts 336°
2026-04-30 11:19 54.31206 15.31804 36371 ft 406 kts 336°
2026-04-30 11:19 54.33647 15.29367 35871 ft 406 kts 337°
2026-04-30 11:19 54.36091 15.26927 35331 ft 407 kts 337°
2026-04-30 11:19 54.38578 15.24607 34819 ft 402 kts 342°
2026-04-30 11:20 54.41129 15.22702 34333 ft 399 kts 344°
2026-04-30 11:20 54.43668 15.20895 33749 ft 398 kts 345°
2026-04-30 11:20 54.46246 15.19114 33188 ft 397 kts 345°
2026-04-30 11:20 54.48816 15.17366 32616 ft 397 kts 345°
2026-04-30 11:21 54.51402 15.15619 32059 ft 400 kts 345°
2026-04-30 11:21 54.54002 15.13870 31782 ft 409 kts 345°
2026-04-30 11:21 54.56672 15.12067 31525 ft 413 kts 345°
2026-04-30 11:21 54.59351 15.10242 31153 ft 413 kts 344°
2026-04-30 11:22 54.62035 15.08377 30432 ft 418 kts 341°
2026-04-30 11:22 54.64634 15.06177 30085 ft 411 kts 339°
2026-04-30 11:22 54.67115 15.03982 29838 ft 399 kts 339°
2026-04-30 11:22 54.69530 15.01832 29494 ft 380 kts 340°
2026-04-30 11:23 54.71829 14.99780 29084 ft 362 kts 340°
2026-04-30 11:23 54.74028 14.97819 28551 ft 350 kts 340°
2026-04-30 11:23 54.78306 14.94022 26936 ft 342 kts 340°
2026-04-30 11:24 54.80419 14.92148 26181 ft 339 kts 341°
2026-04-30 11:24 54.82488 14.90314 25425 ft 336 kts 341°
2026-04-30 11:24 54.84568 14.88470 24746 ft 334 kts 341°
2026-04-30 11:25 54.88676 14.84826 23493 ft 327 kts 341°
2026-04-30 11:25 54.90681 14.82834 22598 ft 345 kts 333°
2026-04-30 11:25 54.94142 14.76117 21245 ft 391 kts 309°
2026-04-30 11:26 54.96880 14.67992 20740 ft 389 kts 307°
2026-04-30 11:26 54.98223 14.63920 20499 ft 387 kts 307°
2026-04-30 11:26 54.99560 14.59862 20222 ft 386 kts 307°
2026-04-30 11:27 55.00893 14.55817 19972 ft 384 kts 307°
2026-04-30 11:27 55.02224 14.51770 19737 ft 383 kts 307°
2026-04-30 11:27 55.03536 14.47777 19498 ft 382 kts 307°
2026-04-30 11:27 55.04862 14.43798 19273 ft 376 kts 310°
2026-04-30 11:28 55.07303 14.37597 18879 ft 371 kts 314°
2026-04-30 11:28 55.09318 14.32752 18513 ft 368 kts 313°
2026-04-30 11:28 55.10796 14.29200 18154 ft 353 kts 313°
2026-04-30 11:29 55.11759 14.26887 17881 ft 344 kts 314°
2026-04-30 11:29 55.13153 14.23555 17659 ft 344 kts 314°
2026-04-30 11:29 55.15994 14.16774 16904 ft 345 kts 313°
2026-04-30 11:30 55.18782 14.10079 16148 ft 339 kts 313°
2026-04-30 11:30 55.20168 14.06747 15773 ft 337 kts 313°
2026-04-30 11:30 55.21541 14.03440 15370 ft 334 kts 313°
2026-04-30 11:31 55.22903 14.00158 14941 ft 332 kts 313°
2026-04-30 11:31 55.24265 13.96872 14516 ft 331 kts 313°
2026-04-30 11:31 55.25599 13.93645 14063 ft 329 kts 313°
2026-04-30 11:31 55.26944 13.90393 13498 ft 330 kts 312°
2026-04-30 11:32 55.28291 13.87129 13036 ft 327 kts 311°
2026-04-30 11:32 55.30042 13.82875 12579 ft 321 kts 311°
2026-04-30 11:32 55.30905 13.80774 12355 ft 318 kts 311°
2026-04-30 11:33 55.33450 13.74572 11646 ft 305 kts 311°
2026-04-30 11:33 55.34677 13.71575 11296 ft 299 kts 311°
2026-04-30 11:33 55.35877 13.68642 10953 ft 292 kts 311°
2026-04-30 11:33 55.37056 13.65759 10612 ft 287 kts 311°
2026-04-30 11:34 55.38211 13.62934 10264 ft 282 kts 310°
2026-04-30 11:34 55.39329 13.60194 9901 ft 277 kts 310°
2026-04-30 11:34 55.40440 13.57447 9539 ft 274 kts 308°
2026-04-30 11:34 55.41326 13.54479 9171 ft 275 kts 296°
2026-04-30 11:35 55.41943 13.51296 8807 ft 273 kts 292°
2026-04-30 11:35 55.42497 13.48094 8459 ft 273 kts 291°
2026-04-30 11:35 55.43041 13.44897 8102 ft 272 kts 291°
2026-04-30 11:35 55.43584 13.41707 7734 ft 271 kts 291°
2026-04-30 11:36 55.44127 13.38532 7404 ft 270 kts 290°
2026-04-30 11:36 55.44661 13.35419 7063 ft 269 kts 290°
2026-04-30 11:36 55.45202 13.32270 6714 ft 267 kts 290°
2026-04-30 11:36 55.45640 13.29080 6354 ft 269 kts 279°
2026-04-30 11:37 55.45495 13.25779 5994 ft 274 kts 257°
2026-04-30 11:37 55.44805 13.22662 5718 ft 272 kts 248°
2026-04-30 11:37 55.44008 13.19670 5458 ft 267 kts 247°
2026-04-30 11:37 55.43221 13.16764 5212 ft 263 kts 247°
2026-04-30 11:38 55.42441 13.13866 5011 ft 260 kts 248°
2026-04-30 11:38 55.41672 13.10983 4972 ft 259 kts 248°
2026-04-30 11:38 55.40907 13.08100 4986 ft 259 kts 248°
2026-04-30 11:38 55.40143 13.05214 4994 ft 260 kts 248°
2026-04-30 11:39 55.39308 13.02390 4993 ft 261 kts 238°
2026-04-30 11:39 55.38070 13.00091 4994 ft 264 kts 221°
2026-04-30 11:39 55.36581 12.98167 4993 ft 265 kts 217°
2026-04-30 11:39 55.35057 12.96326 4996 ft 266 kts 216°
2026-04-30 11:40 55.33536 12.94487 5008 ft 265 kts 218°
2026-04-30 11:40 55.32205 12.92278 4993 ft 262 kts 237°
2026-04-30 11:40 55.31503 12.89387 4996 ft 255 kts 264°
2026-04-30 11:40 55.31593 12.86354 5011 ft 250 kts 289°
2026-04-30 11:41 55.32364 12.83655 4994 ft 247 kts 306°
2026-04-30 11:41 55.33382 12.81208 4942 ft 247 kts 309°
2026-04-30 11:41 55.34430 12.78815 4732 ft 246 kts 309°
2026-04-30 11:41 55.35461 12.76495 4578 ft 240 kts 310°
2026-04-30 11:42 55.36486 12.74241 4424 ft 231 kts 310°
2026-04-30 11:42 55.37472 12.72074 4306 ft 223 kts 310°
2026-04-30 11:42 55.38430 12.69965 4178 ft 220 kts 310°
2026-04-30 11:42 55.39382 12.67863 4051 ft 219 kts 310°
2026-04-30 11:43 55.40333 12.65760 3914 ft 219 kts 310°
2026-04-30 11:43 55.41273 12.63675 3806 ft 220 kts 309°
2026-04-30 11:43 55.42088 12.61392 3656 ft 221 kts 295°
2026-04-30 11:43 55.42411 12.58734 3543 ft 224 kts 272°
2026-04-30 11:44 55.42077 12.56042 3431 ft 228 kts 248°
2026-04-30 11:44 55.41144 12.53806 3285 ft 232 kts 228°
2026-04-30 11:44 55.39943 12.51892 3168 ft 233 kts 224°
2026-04-30 11:44 55.38704 12.50047 3044 ft 233 kts 224°
2026-04-30 11:45 55.37469 12.48189 2999 ft 232 kts 225°
2026-04-30 11:45 55.36370 12.46195 3000 ft 227 kts 243°
2026-04-30 11:45 55.35959 12.43622 3008 ft 217 kts 275°
2026-04-30 11:45 55.36412 12.41162 3009 ft 212 kts 305°
2026-04-30 11:46 55.37347 12.39153 3007 ft 212 kts 314°
2026-04-30 11:46 55.38372 12.37261 3007 ft 213 kts 315°
2026-04-30 11:46 55.39481 12.35581 3002 ft 213 kts 333°
2026-04-30 11:46 55.40924 12.35102 3003 ft 215 kts
2026-04-30 11:47 55.42394 12.35675 3007 ft 218 kts 15°
2026-04-30 11:47 55.43759 12.36793 3004 ft 221 kts 29°
2026-04-30 11:47 55.44989 12.38450 3037 ft 222 kts 37°
2026-04-30 11:47 55.46146 12.40252 3009 ft 218 kts 38°
2026-04-30 11:48 55.47244 12.41957 2999 ft 202 kts 37°
2026-04-30 11:48 55.48270 12.43524 2948 ft 189 kts 36°
2026-04-30 11:48 55.49248 12.44994 2696 ft 186 kts 36°
2026-04-30 11:48 55.50237 12.46512 2411 ft 186 kts 37°
2026-04-30 11:49 55.51191 12.47987 2145 ft 182 kts 37°
2026-04-30 11:49 55.52122 12.49420 1896 ft 173 kts 36°
2026-04-30 11:49 55.53003 12.50776 1659 ft 162 kts 36°
2026-04-30 11:49 55.53826 12.52043 1449 ft 152 kts 36°
2026-04-30 11:50 55.54597 12.53231 1280 ft 141 kts 36°
2026-04-30 11:50 55.55302 12.54317 1075 ft 134 kts 35°
2026-04-30 11:50 55.56011 12.55396 875 ft 135 kts 34°
2026-04-30 11:50 55.56730 12.56485 734 ft 136 kts 35°
2026-04-30 11:51 55.57434 12.57568 551 ft 135 kts 37°
2026-04-30 11:51 55.58127 12.58669 361 ft 132 kts 37°
2026-04-30 11:51 55.58817 12.59726 199 ft 128 kts 39°
2026-04-30 11:51 55.59483 12.60751 35 ft 123 kts 41°
2026-04-30 11:52 55.60053 12.61636 29 ft 95 kts 41°
2026-04-30 11:52 55.60493 12.62316 28 ft 76 kts 41°
2026-04-30 11:52 55.60847 12.62861 28 ft 61 kts 41°
2026-04-30 11:52 55.61134 12.63304 31 ft 49 kts 41°
2026-04-30 11:53 55.61382 12.63688 29 ft 45 kts 41°
2026-04-30 11:53 55.61534 12.63924 29 ft 23 kts 41°
2026-04-30 11:53 55.61625 12.64068 31 ft 12 kts 49°
2026-04-30 11:53 55.61644 12.64212 29 ft 14 kts 84°
2026-04-30 11:54 55.61654 12.64396 28 ft 15 kts 85°
2026-04-30 11:54 55.61688 12.64573 27 ft 16 kts 46°
2026-04-30 11:54 55.61784 12.64687 27 ft 17 kts 33°
2026-04-30 11:54 55.61887 12.64806 27 ft 18 kts 32°
2026-04-30 11:55 55.61997 12.64929 27 ft 19 kts 32°
2026-04-30 11:55 55.62109 12.65060 28 ft 17 kts 34°
2026-04-30 11:55 55.62198 12.65166 28 ft 12 kts 32°
2026-04-30 11:55 55.62272 12.65204 28 ft 9 kts 19°
2026-04-30 11:56 55.62296 12.65297 28 ft 9 kts 89°
2026-04-30 11:56 55.62297 12.65425 28 ft 11 kts 88°
2026-04-30 11:56 55.62299 12.65574 27 ft 13 kts 88°
2026-04-30 11:56 55.62302 12.65744 27 ft 15 kts 89°
2026-04-30 11:57 55.62308 12.65934 27 ft 16 kts 79°
2026-04-30 11:57 55.62324 12.66051 27 ft 8 kts 94°
2026-04-30 11:57 55.62282 12.66117 27 ft 9 kts 156°
2026-04-30 11:57 55.62211 12.66170 32 ft 12 kts 157°
2026-04-30 11:58 55.62128 12.66231 27 ft 14 kts 159°
2026-04-30 11:58 55.62033 12.66288 28 ft 15 kts 161°
2026-04-30 11:58 55.61929 12.66349 28 ft 17 kts 161°
2026-04-30 11:58 55.61857 12.66398 28 ft 10 kts 147°
2026-04-30 11:59 55.61849 12.66512 28 ft 10 kts 78°
2026-04-30 11:59 55.61864 12.66648 28 ft 12 kts 79°
2026-04-30 11:59 55.61881 12.66805 28 ft 14 kts 79°
2026-04-30 11:59 55.61894 12.66904 28 ft 8 kts 70°
2026-04-30 12:00 55.61939 12.66944 28 ft 8 kts 358°
2026-04-30 12:00 55.61993 12.66929 28 ft 7 kts 350°
2026-04-30 12:00 55.62040 12.66944 28 ft 6 kts 44°
2026-04-30 12:00 55.62055 12.66998 28 ft 4 kts 73°
2026-04-30 12:01 55.62061 12.67041 28 ft 2 kts 73°
2026-04-30 12:01 55.62064 12.67063 28 ft 0 kts 78°
2026-04-30 12:01 55.62064 12.67064 28 ft 1 kts 78°